Simultaneous Nadir Overpasses (SNOs) Predictions

Prediction of SNOs between GOES-17 and AQUA Satellite Orbit:

Table of predicted SNOs for the next 14.0 days since TLE Epoch: 9/5/2025
Index Date Time (GOES-17) GOES-17 Lat,Lon AQUA Lat,Lon Distance(km) Time Diff (sec)
1 09/06/2025 08:45:39 -0.21, -89.49 -0.37, -88.73 86.79 80
2 09/06/2025 21:04:53 0.20, -89.51 -0.61, -93.38 439.39 80
3 09/08/2025 20:46:56 0.21, -89.51 0.44, -88.32 134.99 80
4 09/09/2025 09:06:00 -0.20, -89.49 0.52, -92.94 391.00 80
5 09/11/2025 08:42:42 -0.20, -89.49 -0.53, -87.88 183.62 80
6 09/11/2025 21:04:35 0.19, -89.51 -0.48, -92.52 342.61 80
7 09/13/2025 20:43:57 0.20, -89.51 0.63, -87.47 232.51 80
8 09/14/2025 09:03:01 -0.19, -89.50 0.36, -92.07 292.91 80
9 09/16/2025 08:39:42 -0.21, -89.50 -0.74, -87.02 282.45 80
10 09/16/2025 21:01:35 0.20, -89.51 -0.24, -91.66 243.69 80
11 09/18/2025 20:38:15 0.21, -89.53 0.87, -86.60 333.45 80
12 09/19/2025 08:59:58 -0.20, -89.52 0.15, -91.20 190.92 80
